[[{"header":{"parameterUnit":"m.s-1","parameterCategory":1,"la1":30.2991,"la2":30.254,"lo1":-89.0895,"lo2":-89.0444,"dy":0.0017,"dx":0.0017,"nx":28,"ny":28,"refTime":"2025-04-29T09:00:00:Z","depth":0,"parameterNumber":2,"parameterNumberName":"U-component_of_WINDS"},"data":[0,0,0,0,0,0,0,0,0,0,0,0,0,0,0,0,0,0,0,0,0,0,0,0,0,0,0,0,0,0,0,0,0,0,0,0,0,0,0,0,0,0,0,0,0,0,0,0,0,0,0,0,0,0,0,0,0,0,-3.3446,-3.3446,0,-3.3495,-3.3495,-3.3496,-3.3474,-3.3473,-3.3471,-3.347,-3.3518,-3.352,-3.3522,0,0,0,0,0,0,0,0,0,0,0,0,0,-3.3332,-3.3334,-3.3446,-3.3446,-3.3447,-3.3495,-3.3495,-3.3496,-3.3474,-3.3473,-3.3471,-3.347,-3.3517,-3.352,-3.3522,0,0,0,0,0,0,0,0,0,0,0,0,0,-3.3381,-3.3335,-3.3446,-3.3442,-3.3442,-3.3494,-3.3495,-3.3496,-3.3474,-3.3472,-3.3471,-3.3469,-3.3516,-3.3519,-3.3523,-3.3581,0,0,-3.3534,-3.3535,0,0,0,0,0,0,0,0,-3.3379,-3.3385,-3.3442,-3.3442,-3.3442,-3.3476,-3.3473,-3.3524,-3.3475,-3.3462,-3.347,-3.3468,-3.3505,-3.3509,-3.3522,-3.3583,-3.3585,-3.3534,-3.3536,-3.3538,-3.3539,0,0,0,0,0,0,0,-3.3375,-3.3383,-3.3465,-3.3443,-3.3443,-3.3437,-3.3442,-3.3482,-3.3493,-3.3463,-3.3461,-3.3468,-3.3505,-3.3519,-3.3523,-3.3586,-3.3534,-3.3537,-3.3539,-3.3541,-3.3698,-3.37,0,0,0,0,0,0,-3.3372,-3.3381,-3.3463,-3.3466,-3.3406,-3.3441,-3.3446,-3.3467,-3.3492,-3.3495,-3.3469,-3.3466,-3.3514,-3.3519,-3.3525,-3.3594,-3.3538,-3.3541,-3.3543,-3.3696,-3.3698,-3.37,0,0,0,0,0,0,-3.337,-3.338,-3.3461,-3.3423,-3.3433,-3.3445,-3.3468,-3.3469,-3.3483,-3.3497,-3.3499,-3.3482,-3.3513,-3.352,-3.3568,-3.3596,-3.3543,-3.3546,-3.3693,-3.3696,-3.3699,-3.3733,0,0,0,0,0,0,-3.3367,-3.3379,-3.3401,-3.3424,-3.3435,-3.3503,-3.347,-3.3471,-3.349,-3.3487,-3.3509,-3.3511,-3.3512,-3.3562,-3.3571,-3.36,-3.3549,-3.3691,-3.3695,-3.3698,-3.373,-3.3737,-3.3744,0,0,0,0,0,-3.3363,-3.3408,-3.3402,-3.3412,-3.3463,-3.3505,-3.3511,-3.3512,-3.3492,-3.3514,-3.3524,-3.3511,-3.3592,-3.3567,-3.3577,-3.3607,-3.3689,-3.3694,-3.3698,-3.3727,-3.3736,-3.3744,0,0,0,0,0,0,-3.3387,-3.3411,-3.3405,-3.3459,-3.348,-3.3501,-3.3529,-3.3521,-3.3548,-3.3544,-3.3542,-3.3548,-3.3597,-3.3607,-3.3579,-3.3665,-3.3637,-3.3644,-3.3656,-3.3665,-3.3672,-3.3667,-3.3552,0,0,0,0,0,-3.3399,-3.3431,-3.345,-3.3496,-3.3508,-3.3517,-3.3535,-3.3534,-3.3555,-3.3564,-3.3576,-3.3597,-3.3628,-3.3647,-3.3676,-3.3733,-3.3737,-3.3758,-3.3765,-3.3771,-3.3776,-3.3806,-3.3816,-3.3715,-3.3715,-3.3715,0,0,-3.3423,-3.344,-3.346,-3.3502,-3.3518,-3.3551,-3.3524,-3.356,-3.3584,-3.3569,-3.3614,-3.3625,-3.3648,-3.3701,-3.3725,-3.3711,-3.3805,-3.3777,-3.3781,-3.3783,-3.3812,-3.3821,-3.383,-3.3718,-3.3718,-3.3717,0,0,-3.3483,-3.35,-3.354,-3.3558,-3.3584,-3.359,-3.36,-3.3623,-3.363,-3.3676,-3.3665,-3.3695,-3.3747,-3.3764,-3.3779,-3.385,-3.3839,-3.386,-3.3895,-3.3925,-3.3933,-3.3939,-3.3963,-3.3972,-3.3865,-3.3865,-3.3866,0,-3.3509,-3.3559,-3.3562,-3.3599,-3.3617,-3.3608,-3.3648,-3.3665,-3.3698,-3.3711,-3.3696,-3.3762,-3.3777,-3.3834,-3.3851,-3.3865,-3.3875,-3.3855,-3.3931,-3.3938,-3.3945,-3.3968,-3.3977,-3.3868,-3.3867,-3.3867,-3.3867,0,-3.359,-3.3625,-3.3654,-3.3688,-3.371,-3.3749,-3.3757,-3.378,-3.3778,-3.3786,-3.3834,-3.3852,-3.3884,-3.3898,-3.3896,-3.3955,-3.3945,-3.3931,-3.3903,-3.3957,-3.3978,-3.3987,-3.3871,-3.387,-3.3869,-3.3869,0,0,-3.3662,-3.37,-3.371,-3.3726,-3.3755,-3.3782,-3.3821,-3.3854,-3.3873,-3.3898,-3.3929,-3.3976,-3.3963,-3.3981,-3.3981,-3.4008,-3.4062,-3.3991,-3.3991,-3.4001,-3.4127,-3.4135,-3.4145,-3.4056,-3.4058,-3.4059,-3.4124,0,-3.3724,-3.3792,-3.3797,-3.3858,-3.389,-3.3883,-3.3917,-3.3939,-3.3948,-3.3977,-3.3987,-3.4019,-3.4002,-3.4012,-3.4039,-3.405,-3.4086,-3.4046,-3.4084,-3.4085,-3.4075,-3.4156,-3.4165,-3.4225,-3.4132,-3.4134,-3.4135,0,-3.3803,-3.3831,-3.3896,-3.3922,-3.3936,-3.3966,-3.3997,-3.4026,-3.405,-3.4055,-3.4077,-3.4074,-3.4114,-3.4087,-3.4142,-3.4114,-3.4131,-3.4139,-3.4142,-3.4142,-3.4111,-3.4157,-3.4244,-3.4252,-3.4148,-3.4147,-3.4146,0,-3.3847,-3.3902,-3.3948,-3.3962,-3.3994,-3.4015,-3.403,-3.4053,-3.4073,-3.4101,-3.4114,-3.4146,-3.4162,-3.4187,-3.4193,-3.4173,-3.4248,-3.4221,-3.4252,-3.4251,-3.4264,-3.4263,-3.4352,-3.428,-3.428,-3.428,-3.428,0,-3.3913,-3.3952,-3.3968,-3.3996,-3.4041,-3.4047,-3.4091,-3.4104,-3.4125,-3.4155,-3.4152,-3.418,-3.4188,-3.4218,-3.4223,-3.4267,-3.4275,-3.428,-3.428,-3.4278,-3.4277,-3.4287,-3.4282,-3.4282,-3.4282,-3.4281,-3.4281,0,-3.3968,-3.3981,-3.403,-3.4058,-3.4065,-3.4097,-3.412,-3.4147,-3.4158,-3.4196,-3.4205,-3.4221,-3.4257,-3.4266,-3.4308,-3.4312,-3.4363,-3.4361,-3.4354,-3.4353,-3.4383,-3.4379,-3.4479,-3.4492,-3.4414,-3.4414,-3.4415,0,-3.4008,-3.4038,-3.407,-3.409,-3.4106,-3.4139,-3.416,-3.4168,-3.419,-3.4223,-3.4246,-3.4281,-3.4309,-3.4366,-3.438,-3.4413,-3.441,-3.4443,-3.4414,-3.4412,-3.4408,-3.4405,-3.4407,-3.4447,-3.4448,-3.4449,-3.4449,0,-3.4076,-3.4081,-3.4112,-3.4146,-3.4172,-3.4198,-3.4224,-3.4241,-3.4253,-3.4278,-3.4315,-3.4337,-3.4381,-3.4415,-3.4449,-3.4463,-3.4458,-3.4459,-3.4467,-3.4464,-3.4458,-3.446,-3.4366,-3.4455,-3.4455,-3.4454,-3.4454,-3.4454,-3.4123,-3.415,-3.4177,-3.4211,-3.4232,-3.4257,-3.4284,-3.4299,-3.433,-3.4366,-3.437,-3.441,-3.4436,-3.448,-3.4497,-3.4527,-3.4517,-3.453,-3.4533,-3.4535,-3.4536,-3.4456,-3.4534,-3.4534,-3.4534,-3.4533,-3.4533,0,-3.419,-3.4207,-3.424,-3.4276,-3.4304,-3.43,-3.4328,-3.4351,-3.4386,-3.4412,-3.444,-3.4483,-3.4517,-3.4536,-3.4571,-3.4592,-3.459,-3.46,-3.4597,-3.46,-3.4544,-3.4533,-3.4601,-3.4601,-3.4601,-3.4601,-3.4601,-3.4601,-3.4227,-3.4272,-3.4281,-3.4337,-3.4355,-3.4394,-3.4411,-3.4433,-3.4453,-3.4501,-3.453,-3.4544,-3.4566,-3.4603,-3.4634,-3.4639,-3.4651,-3.4661,-3.4665,-3.4611,-3.4604,-3.4597,-3.4586,-3.4665,-3.4665,-3.4718,-3.4718,-3.4719]},{"header":{"parameterUnit":"m.s-1","parameterCategory":1,"la1":30.2991,"la2":30.254,"lo1":-89.0895,"lo2":-89.0444,"dy":0.0017,"dx":0.0017,"nx":28,"ny":28,"refTime":"2025-04-29T09:00:00:Z","depth":0,"parameterNumber":3,"parameterNumberName":"V-component_of_WINDS"},"data":[0,0,0,0,0,0,0,0,0,0,0,0,0,0,0,0,0,0,0,0,0,0,0,0,0,0,0,0,0,0,0,0,0,0,0,0,0,0,0,0,0,0,0,0,0,0,0,0,0,0,0,0,0,0,0,0,0,0,3.559,3.5591,0,3.5649,3.5649,3.565,3.5716,3.5717,3.5718,3.5719,3.5776,3.5777,3.5777,0,0,0,0,0,0,0,0,0,0,0,0,0,3.5533,3.5534,3.559,3.5591,3.5591,3.5649,3.5649,3.565,3.5716,3.5718,3.5719,3.572,3.5776,3.5777,3.5777,0,0,0,0,0,0,0,0,0,0,0,0,0,3.5571,3.5534,3.559,3.5631,3.5636,3.5648,3.5649,3.565,3.5716,3.5718,3.5719,3.572,3.5776,3.5776,3.5777,3.5753,0,0,3.578,3.578,0,0,0,0,0,0,0,0,3.5569,3.5573,3.5624,3.5628,3.5633,3.5677,3.565,3.5685,3.5716,3.5685,3.5719,3.5721,3.5742,3.5745,3.5753,3.5756,3.5758,3.578,3.5781,3.5781,3.5781,0,0,0,0,0,0,0,3.5566,3.5571,3.5613,3.5625,3.5631,3.5646,3.5654,3.5657,3.5704,3.5688,3.5693,3.5699,3.5744,3.5752,3.5755,3.5759,3.578,3.5781,3.5781,3.5782,3.5746,3.5745,0,0,0,0,0,0,3.5558,3.5568,3.5611,3.5615,3.5604,3.5646,3.5654,3.5661,3.5704,3.5713,3.5698,3.5702,3.575,3.5754,3.5757,3.5733,3.5781,3.5782,3.5782,3.5748,3.5746,3.5744,0,0,0,0,0,0,3.5556,3.5561,3.5609,3.5593,3.56,3.5646,3.5653,3.5662,3.567,3.5712,3.572,3.5697,3.5751,3.5756,3.5754,3.5736,3.5782,3.5783,3.5749,3.5747,3.5745,3.5683,0,0,0,0,0,0,3.5554,3.556,3.5551,3.5592,3.5601,3.5605,3.5652,3.5662,3.5671,3.5677,3.5714,3.5721,3.5753,3.5753,3.5755,3.5738,3.5784,3.5751,3.5748,3.5746,3.5686,3.5679,3.5672,0,0,0,0,0,3.5552,3.553,3.5551,3.5555,3.5591,3.5604,3.5609,3.5647,3.5669,3.5661,3.5689,3.572,3.5737,3.5752,3.5755,3.5738,3.5753,3.5749,3.5746,3.569,3.568,3.5672,0,0,0,0,0,0,3.5484,3.5536,3.5559,3.555,3.5572,3.5615,3.5606,3.5635,3.565,3.5655,3.57,3.5708,3.5701,3.5719,3.5734,3.5717,3.575,3.5747,3.5706,3.5697,3.5689,3.5685,3.5784,0,0,0,0,0,3.5468,3.5475,3.552,3.5507,3.5518,3.556,3.5566,3.5594,3.5618,3.5627,3.5655,3.5676,3.5687,3.5693,3.5705,3.569,3.5699,3.5679,3.5672,3.5666,3.5663,3.5658,3.565,3.5734,3.5734,3.5734,0,0,3.5435,3.5464,3.5465,3.5495,3.5515,3.5521,3.5567,3.557,3.5575,3.5628,3.5629,3.5649,3.5676,3.5668,3.5666,3.5683,3.5642,3.5661,3.5656,3.5657,3.5653,3.5645,3.5638,3.5731,3.5732,3.5732,0,0,3.5378,3.54,3.5394,3.5414,3.5445,3.5473,3.5471,3.551,3.5527,3.5529,3.5569,3.5575,3.5591,3.561,3.5621,3.5573,3.5603,3.5576,3.5537,3.5531,3.5525,3.5519,3.5503,3.5496,3.5573,3.5572,3.5572,0,3.5332,3.5343,3.5386,3.5388,3.54,3.545,3.5443,3.546,3.5493,3.5499,3.5519,3.5543,3.5564,3.5562,3.555,3.5558,3.5557,3.5572,3.5522,3.5517,3.5512,3.5498,3.5491,3.5569,3.5569,3.557,3.557,0,3.5286,3.5293,3.5284,3.5317,3.5327,3.5325,3.5367,3.5373,3.54,3.5426,3.5428,3.5456,3.5475,3.5477,3.5502,3.5478,3.5488,3.5514,3.5547,3.55,3.5487,3.5482,3.5564,3.5565,3.5566,3.5567,0,0,3.5186,3.5244,3.524,3.5256,3.5295,3.5301,3.5301,3.5322,3.5326,3.5347,3.5349,3.5363,3.5388,3.5401,3.5429,3.5424,3.5386,3.5451,3.5453,3.5439,3.5363,3.5343,3.5336,3.5406,3.5405,3.5404,3.5361,0,3.5137,3.5141,3.5181,3.5174,3.5181,3.523,3.523,3.5254,3.5279,3.5288,3.5316,3.5325,3.5357,3.5366,3.5363,3.5391,3.5371,3.5395,3.5407,3.5407,3.54,3.5329,3.5308,3.5265,3.5356,3.5355,3.5354,0,3.5079,3.5099,3.5093,3.5134,3.5139,3.5138,3.5161,3.517,3.5198,3.5217,3.5232,3.5265,3.5268,3.5299,3.5304,3.5319,3.5327,3.5342,3.5341,3.5344,3.5378,3.533,3.5253,3.5246,3.5346,3.5347,3.5347,0,3.5008,3.5033,3.5034,3.5046,3.5093,3.5092,3.5111,3.5141,3.5152,3.5171,3.5179,3.5198,3.5208,3.5222,3.5259,3.5278,3.526,3.5294,3.5275,3.5274,3.5269,3.5269,3.5192,3.5273,3.5273,3.5273,3.5273,0,3.4948,3.4943,3.5003,3.5003,3.4999,3.5044,3.5038,3.5062,3.5089,3.5095,3.5137,3.5141,3.519,3.5199,3.5228,3.5228,3.5232,3.5247,3.5255,3.5244,3.5242,3.5249,3.5253,3.5272,3.5272,3.5272,3.5273,0,3.4868,3.4908,3.4912,3.4957,3.4969,3.4964,3.5002,3.5004,3.5033,3.5039,3.5043,3.5087,3.5101,3.514,3.5162,3.5182,3.5174,3.5188,3.5165,3.517,3.515,3.5151,3.5075,3.5068,3.5152,3.5152,3.5151,0,3.4828,3.4826,3.4871,3.4879,3.4897,3.4908,3.492,3.4965,3.4975,3.5008,3.5006,3.5023,3.504,3.5059,3.5093,3.5111,3.5127,3.5099,3.5129,3.5119,3.5127,3.5127,3.5127,3.5092,3.5091,3.509,3.5089,0,3.4752,3.4773,3.4789,3.4811,3.4825,3.4844,3.4866,3.487,3.492,3.4929,3.4945,3.4958,3.4982,3.4999,3.5023,3.5043,3.5074,3.5079,3.5076,3.5065,3.5052,3.5059,3.5147,3.5081,3.5082,3.5082,3.5083,3.5083,3.4692,3.4693,3.4726,3.4742,3.4764,3.4784,3.4789,3.4819,3.4833,3.4858,3.4883,3.4896,3.4925,3.4961,3.4978,3.4989,3.5005,3.5,3.4999,3.4997,3.4993,3.505,3.4993,3.4993,3.4994,3.4994,3.4994,0,3.4619,3.4644,3.4658,3.4689,3.4702,3.4732,3.4759,3.4767,3.4779,3.4804,3.482,3.4839,3.4856,3.4892,3.4912,3.4914,3.4929,3.4917,3.4918,3.4922,3.4976,3.4977,3.4905,3.4905,3.4905,3.4905,3.4905,3.4905,3.4583,3.4587,3.4611,3.4626,3.465,3.4665,3.4677,3.4696,3.4717,3.4736,3.4751,3.4775,3.4805,3.4828,3.4845,3.4855,3.4861,3.4845,3.486,3.491,3.4918,3.4926,3.4928,3.4846,3.4846,3.4805,3.4804,3.4804]}]]